N5FTL Weather Reports


time (UTC)temp
C
wind
direction
speed
KPH
gust
KPH
rain 1hr
cm
rain 24hr
cm
rain mn
cm
humidity
%
barometer
mb
20260506104137 14 46 0.0 1.6 0.00 0.00 0.00 72 1004.1
20260506103637 14 47 0.0 0.0 0.00 0.00 0.00 72 1004.1
20260506103137 14 50 0.0 0.0 0.00 0.00 0.00 72 1004.1
20260506102637 14 50 0.0 0.0 0.00 0.00 0.00 72 1004.4
20260506102137 14 57 0.0 0.0 0.00 0.00 0.00 72 1004.4
20260506101637 14 57 0.0 0.0 0.00 0.00 0.00 72 1004.5
20260506101137 13 13 0.0 0.0 0.00 0.00 0.00 73 1004.5
20260506100637 13 347 0.0 0.0 0.00 0.00 0.00 73 1004.5
20260506095637 14 7 0.0 1.6 0.00 0.00 0.00 73 1004.5
20260506095137 14 17 0.0 1.6 0.00 0.00 0.00 72 1004.4
20260506094637 14 11 0.0 1.6 0.00 0.00 0.00 72 1004.4
20260506094137 14 23 0.0 1.6 0.00 0.00 0.00 72 1004.5
20260506093637 14 2 0.0 1.6 0.00 0.00 0.00 72 1004.5
20260506093137 15 46 0.0 1.6 0.00 0.00 0.00 71 1004.8
20260506092637 15 28 0.0 0.0 0.00 0.00 0.00 71 1004.8
20260506092137 15 2 0.0 0.0 0.00 0.00 0.00 71 1004.9
20260506091137 15 63 0.0 1.6 0.00 0.00 0.00 71 1004.5
20260506090637 15 65 0.0 1.6 0.00 0.00 0.00 70 1004.6
20260506090137 15 18 0.0 1.6 0.00 0.00 0.00 70 1004.3
20260506085637 15 41 0.0 1.6 0.00 0.00 0.00 70 1004.4
20260506084637 16 54 0.0 0.0 0.00 0.00 0.00 69 1004.3
20260506084137 16 60 0.0 0.0 0.00 0.00 0.00 68 1004.2
20260506083637 16 61 0.0 1.6 0.00 0.00 0.00 68 1004.4
20260506083137 16 67 0.0 1.6 0.00 0.00 0.00 67 1004.3
20260506082637 16 54 0.0 1.6 0.00 0.00 0.00 66 1004.4
20260506082137 16 70 0.0 1.6 0.00 0.00 0.00 65 1004.4
20260506081636 17 78 0.0 1.6 0.00 0.00 0.00 65 1004.3
20260506081137 17 76 0.0 1.6 0.00 0.00 0.00 64 1004.3
20260506080637 17 80 0.0 3.2 0.00 0.00 0.00 63 1004.3
20260506080137 17 82 0.0 3.2 0.00 0.00 0.00 62 1004.3
20260506073137 19 79 0.0 3.2 0.00 0.00 0.00 64 1003.6
20260506072637 19 116 0.0 1.6 0.00 0.00 0.00 63 1003.6
20260506072137 19 67 0.0 0.0 0.00 0.00 0.00 62 1003.5
20260506071637 19 88 0.0 0.0 0.00 0.00 0.00 61 1003.5
20260506071136 19 75 0.0 0.0 0.00 0.00 0.00 60 1003.3
20260506070637 19 60 0.0 0.0 0.00 0.00 0.00 59 1003.3
20260506062137 19 125 0.0 0.0 0.00 0.00 0.00 55 1002.7
20260506061636 20 125 0.0 0.0 0.00 0.00 0.00 55 1002.6
20260506061136 20 125 0.0 0.0 0.00 0.00 0.00 54 1002.5
20260506060637 20 125 0.0 0.0 0.00 0.00 0.00 54 1002.4
20260506060137 20 126 0.0 0.0 0.00 0.00 0.00 54 1002.3
20260506051137 19 265 0.0 0.0 0.00 0.00 0.00 62 1002.3
20260506050638 19 265 0.0 0.0 0.00 0.00 0.00 60 1002.3
20260506050136 19 265 0.0 0.0 0.00 0.00 0.00 60 1002.3
20260506044636 20 265 0.0 0.0 0.00 0.00 0.00 55 1002.5
20260506044138 20 265 0.0 0.0 0.00 0.00 0.00 55 1002.4
20260506043137 20 265 0.0 0.0 0.00 0.00 0.00 56 1002.4
20260506042137 20 265 0.0 0.0 0.00 0.00 0.00 56 1002.2
20260506041636 20 265 0.0 0.0 0.00 0.00 0.00 56 1002.2
20260506041137 20 265 0.0 0.0 0.00 0.00 0.00 56 1002.1
20260506040137 20 265 0.0 0.0 0.00 0.00 0.00 54 1002.1
20260506035636 20 265 0.0 0.0 0.00 0.00 0.00 54 1002.1
20260506035137 20 265 0.0 0.0 0.00 0.00 0.00 54 1002.1
20260506034637 21 265 0.0 0.0 0.00 0.00 0.00 53 1002.0
20260506034137 21 265 0.0 0.0 0.00 0.00 0.00 52 1002.1
20260506033637 21 265 0.0 0.0 0.00 0.00 0.00 50 1002.2
20260506032636 21 265 0.0 0.0 0.00 0.00 0.00 47 1002.3
20260506032137 21 265 0.0 0.0 0.00 0.00 0.00 46 1002.2
20260506031636 22 265 0.0 0.0 0.00 0.00 0.00 44 1002.2
20260506031136 22 265 0.0 0.0 0.00 0.00 0.00 43 1002.1
20260506030637 22 265 0.0 0.0 0.00 0.00 0.00 42 1002.1
20260506030136 22 265 0.0 0.0 0.00 0.00 0.00 42 1002.1
20260506025636 22 265 0.0 0.0 0.00 0.00 0.00 41 1002.1
20260506025137 23 265 0.0 0.0 0.00 0.00 0.00 41 1002.0
20260506024636 23 265 0.0 0.0 0.00 0.00 0.00 39 1002.1
20260506024137 23 265 0.0 0.0 0.00 0.00 0.00 37 1002.0
20260506023636 23 265 0.0 0.0 0.00 0.00 0.00 37 1001.9
20260506023137 23 265 0.0 0.0 0.00 0.00 0.00 36 1001.9
20260506022636 23 265 0.0 0.0 0.00 0.00 0.00 36 1001.8
20260506022136 24 265 0.0 0.0 0.00 0.00 0.00 35 1001.7
20260506021637 25 265 0.0 0.0 0.00 0.00 0.00 34 1001.6
20260506021136 25 265 0.0 0.0 0.00 0.00 0.00 31 1001.5
20260506020636 25 265 0.0 0.0 0.00 0.00 0.00 31 1001.5
20260506015636 26 265 0.0 0.0 0.00 0.00 0.00 30 1001.3
20260506015136 26 265 0.0 0.0 0.00 0.00 0.00 29 1001.3
20260506014636 26 269 0.0 0.0 0.00 0.00 0.00 28 1001.3
20260506014136 26 274 0.0 0.0 0.00 0.00 0.00 28 1001.2
20260506013636 26 287 0.0 0.0 0.00 0.00 0.00 28 1001.2
20260506013137 27 283 0.0 0.0 0.00 0.00 0.00 27 1001.2
20260506012636 27 286 0.0 1.6 0.00 0.00 0.00 26 1001.0
20260506012136 27 279 0.0 1.6 0.00 0.00 0.00 25 1001.0
20260506011636 27 275 0.0 3.2 0.00 0.00 0.00 25 1000.9
20260506011136 27 270 0.0 3.2 0.00 0.00 0.00 24 1000.9
20260506010636 28 265 0.0 3.2 0.00 0.00 0.00 24 1000.9
20260506005636 28 288 0.0 1.6 0.00 0.00 0.00 23 1000.9
20260506005136 28 276 0.0 1.6 0.00 0.00 0.00 22 1000.9
20260506004636 28 285 0.0 1.6 0.00 0.00 0.00 21 1000.9
20260506004136 28 263 0.0 1.6 0.00 0.00 0.00 21 1000.9
20260506003636 28 277 0.0 3.2 0.00 0.00 0.00 20 1000.9
20260506002636 28 276 0.0 3.2 0.00 0.00 0.00 20 1000.9
20260506001636 29 275 1.6 3.2 0.00 0.00 0.00 20 1000.9
20260506001136 29 276 0.0 4.8 0.00 0.00 0.00 19 1000.8
20260506000636 29 266 1.6 4.8 0.00 0.00 0.00 19 1000.7
20260506000136 29 270 1.6 4.8 0.00 0.00 0.00 19 1000.7
20260505235136 30 278 1.6 3.2 0.00 0.00 0.00 19 1000.5
20260505234636 30 284 0.0 3.2 0.00 0.00 0.00 19 1000.2
20260505234136 30 282 0.0 1.6 0.00 0.00 0.00 19 1000.1
20260505233636 30 275 0.0 1.6 0.00 0.00 0.00 19 1000.2
20260505233136 30 282 0.0 1.6 0.00 0.00 0.00 18 1000.3
20260505232136 30 280 0.0 1.6 0.00 0.00 0.00 18 999.8
20260505231136 30 266 0.0 1.6 0.00 0.00 0.00 19 999.8
20260505230636 30 274 0.0 4.8 0.00 0.00 0.00 19 1000.0
20260505230136 31 272 0.0 4.8 0.00 0.00 0.00 19 1000.0
20260505225636 31 261 0.0 3.2 0.00 0.00 0.00 19 1000.1
20260505225136 31 280 0.0 3.2 0.00 0.00 0.00 19 999.9
20260505224636 31 266 0.0 1.6 0.00 0.00 0.00 19 999.9
20260505223636 31 276 0.0 3.2 0.00 0.00 0.00 20 999.8
20260505223136 31 273 0.0 3.2 0.00 0.00 0.00 19 999.9
20260505222136 31 280 0.0 3.2 0.00 0.00 0.00 20 999.8
20260505221636 31 268 0.0 3.2 0.00 0.00 0.00 19 999.8
20260505221136 31 277 0.0 3.2 0.00 0.00 0.00 20 999.8
20260505220636 31 282 0.0 3.2 0.00 0.00 0.00 20 1000.0
20260505220136 31 284 0.0 3.2 0.00 0.00 0.00 20 1000.0
20260505215636 31 305 0.0 3.2 0.00 0.00 0.00 20 1000.0
20260505215136 31 281 1.6 3.2 0.00 0.00 0.00 20 1000.0
20260505214635 31 283 0.0 1.6 0.00 0.00 0.00 20 1000.3
20260505214136 31 282 0.0 3.2 0.00 0.00 0.00 19 1000.3
20260505213136 31 298 1.6 3.2 0.00 0.00 0.00 20 1000.0
20260505212635 32 287 0.0 1.6 0.00 0.00 0.00 19 1000.1
20260505212136 32 270 0.0 1.6 0.00 0.00 0.00 20 1000.2
20260505211635 31 280 0.0 1.6 0.00 0.00 0.00 20 1000.2
20260505211136 31 250 1.6 3.2 0.00 0.00 0.00 19 1000.1
20260505210635 31 269 1.6 4.8 0.00 0.00 0.00 20 1000.2
20260505210136 32 276 0.0 4.8 0.00 0.00 0.00 20 1000.2
20260505205635 31 287 0.0 4.8 0.00 0.00 0.00 20 1000.3
20260505205136 31 283 0.0 3.2 0.00 0.00 0.00 21 1000.3
20260505204635 32 286 0.0 3.2 0.00 0.00 0.00 20 1000.3
20260505204136 31 277 0.0 3.2 0.00 0.00 0.00 19 1000.5
20260505202635 32 283 0.0 3.2 0.00 0.00 0.00 19 1000.6
20260505202136 32 283 0.0 1.6 0.00 0.00 0.00 19 1000.6
20260505201635 32 282 0.0 1.6 0.00 0.00 0.00 19 1000.7
20260505201136 32 284 0.0 3.2 0.00 0.00 0.00 19 1000.6
20260505200635 32 272 0.0 3.2 0.00 0.00 0.00 19 1000.7
20260505200135 32 280 0.0 4.8 0.00 0.00 0.00 19 1000.7
20260505195635 32 272 0.0 4.8 0.00 0.00 0.00 20 1000.8
20260505195136 32 279 0.0 19.3 0.00 0.00 0.00 20 1000.6
20260505194635 32 263 11.3 19.3 0.00 0.00 0.00 24 1000.5
20260505194136 31 243 12.9 22.5 0.00 0.00 0.00 26 1000.5
20260505193635 31 287 6.4 24.1 0.00 0.00 0.00 25 1000.6
20260505193136 32 240 17.7 24.1 0.00 0.00 0.00 25 1000.7
20260505191635 32 265 8.0 19.3 0.00 0.00 0.00 25 1000.8
20260505191136 32 250 12.9 19.3 0.00 0.00 0.00 26 1000.9
20260505190635 31 261 0.0 19.3 0.00 0.00 0.00 26 1000.9
20260505190135 31 258 8.0 19.3 0.00 0.00 0.00 26 1000.9
20260505185635 31 250 4.8 19.3 0.00 0.00 0.00 25 1000.9
20260505185136 31 269 4.8 19.3 0.00 0.00 0.00 26 1000.8
20260505184635 31 275 9.7 19.3 0.00 0.00 0.00 25 1000.8
20260505184136 31 288 1.6 19.3 0.00 0.00 0.00 26 1000.9
20260505183635 31 257 9.7 19.3 0.00 0.00 0.00 27 1001.1
20260505183135 31 238 11.3 16.1 0.00 0.00 0.00 26 1001.2
20260505182635 31 296 9.7 19.3 0.00 0.00 0.00 26 1001.3
20260505182135 30 283 9.7 19.3 0.00 0.00 0.00 27 1001.3
20260505181635 30 258 8.0 16.1 0.00 0.00 0.00 29 1001.4
20260505181135 30 240 1.6 16.1 0.00 0.00 0.00 28 1001.4
20260505180635 30 281 0.0 14.5 0.00 0.00 0.00 31 1001.3
20260505180136 30 262 3.2 14.5 0.00 0.00 0.00 29 1001.3
20260505175635 30 245 0.0 4.8 0.00 0.00 0.00 30 1001.3
20260505175135 30 284 0.0 16.1 0.00 0.00 0.00 30 1001.5
20260505174635 30 257 8.0 16.1 0.00 0.00 0.00 30 1001.4
20260505174135 30 261 9.7 14.5 0.00 0.00 0.00 31 1001.5
20260505173635 29 280 0.0 16.1 0.00 0.00 0.00 33 1001.5
20260505173135 29 287 4.8 19.3 0.00 0.00 0.00 34 1001.5
20260505172635 29 266 4.8 19.3 0.00 0.00 0.00 36 1001.5
20260505172135 28 236 6.4 19.3 0.00 0.00 0.00 38 1001.5
20260505171635 28 242 6.4 19.3 0.00 0.00 0.00 39 1001.5
20260505171135 28 257 11.3 19.3 0.00 0.00 0.00 39 1001.6
20260505170635 28 256 0.0 19.3 0.00 0.00 0.00 40 1001.6
20260505170135 28 267 1.6 19.3 0.00 0.00 0.00 40 1001.8
20260505165635 28 274 4.8 16.1 0.00 0.00 0.00 41 1001.8
20260505165135 27 250 4.8 19.3 0.00 0.00 0.00 42 1001.8
20260505164635 27 248 9.7 19.3 0.00 0.00 0.00 41 1001.8
20260505164135 27 246 9.7 16.1 0.00 0.00 0.00 43 1001.8
20260505163635 27 241 9.7 16.1 0.00 0.00 0.00 46 1001.8
20260505163135 26 265 3.2 16.1 0.00 0.00 0.00 50 1001.8
20260505162635 26 257 4.8 19.3 0.00 0.00 0.00 50 1001.8
20260505162135 26 250 9.7 19.3 0.00 0.00 0.00 51 1001.8
20260505161635 26 250 6.4 19.3 0.00 0.00 0.00 53 1001.8
20260505161135 26 247 8.0 16.1 0.00 0.00 0.00 54 1002.0
20260505160635 25 268 0.0 11.3 0.00 0.00 0.00 56 1002.0
20260505160135 25 256 0.0 19.3 0.00 0.00 0.00 58 1002.0
20260505153135 23 238 0.0 16.1 0.00 0.00 0.00 69 1002.0
20260505152635 23 225 4.8 19.3 0.00 0.00 0.00 69 1001.8
20260505151635 23 240 4.8 14.5 0.00 0.00 0.00 71 1002.0
20260505151135 22 244 4.8 16.1 0.00 0.00 0.00 72 1002.0
20260505150635 22 238 8.0 16.1 0.00 0.00 0.00 73 1001.9
20260505150134 22 225 0.0 0.0 0.00 0.00 0.00 75 1001.9
20260505140635 20 199 0.0 1.6 0.00 0.00 0.00 82 1001.7
20260505140134 20 202 0.0 1.6 0.00 0.00 0.00 82 1001.6
20260505130134 19 205 0.0 0.0 0.00 0.00 0.00 85 1001.4
20260505124634 19 203 0.0 4.8 0.00 0.00 0.00 85 1001.2
20260505124135 18 207 0.0 4.8 0.00 0.00 0.00 85 1001.2
20260505123634 18 219 0.0 0.0 0.00 0.00 0.00 85 1001.2
20260505123134 18 219 0.0 0.0 0.00 0.00 0.00 85 1001.2
20260505122634 18 219 0.0 0.0 0.00 0.00 0.00 84 1001.1
20260505122135 18 219 0.0 0.0 0.00 0.00 0.00 84 1001.0
20260505121135 18 219 0.0 0.0 0.00 0.00 0.00 84 1000.8
20260505120634 19 219 0.0 0.0 0.00 0.00 0.00 84 1000.7
20260505115634 19 219 0.0 0.0 0.00 0.00 0.00 84 1000.9
20260505115134 19 218 0.0 0.0 0.00 0.00 0.00 83 1000.7
20260505114634 19 218 0.0 0.0 0.00 0.00 0.00 83 1000.7
20260505114135 19 218 0.0 0.0 0.00 0.00 0.00 83 1000.7
20260505113634 19 218 0.0 12.9 0.00 0.00 0.00 83 1000.6
20260505113134 19 218 0.0 12.9 0.00 0.00 0.00 83 1000.5
20260505112634 19 247 0.0 4.8 0.00 0.00 0.00 83 1000.5
20260505112134 19 196 0.0 4.8 0.00 0.00 0.00 82 1000.5
20260505111134 19 196 0.0 0.0 0.00 0.00 0.00 82 1000.5
20260505110634 19 196 0.0 0.0 0.00 0.00 0.00 82 1000.4
20260505110134 19 196 0.0 0.0 0.00 0.00 0.00 82 1000.3